Weather History for KHUL - October, 2013

Change the Weather History Date:

Saturday, October 5, 2013

  Actual Average Record
Temperature  
Mean Temperature 45 °F 47 °F  
Max Temperature 59 °F 58 °F 78 °F (2005)
Min Temperature 30 °F 36 °F 21 °F (1975)
Degree Days  
Heating Degree Days 20 18  
Month to date heating degree days 61 85  
Since 1 July heating degree days 471 553  
Cooling Degree Days 0 0  
Month to date cooling degree days 0 0  
Year to date cooling degree days 198 191  
Moisture  
Dew Point 35 °F    
Average Humidity 70    
Maximum Humidity 100    
Minimum Humidity 40    
Precipitation  
Precipitation 0.00 in 0.12 in 0.82 in (1983)
Month to date precipitation 0.00 0.58  
Year to date precipitation 32.70 29.60  
Sea Level Pressure  
Sea Level Pressure 30.12 in    
Wind  
Wind Speed 3 mph (NNW)    
Max Wind Speed 10 mph    
Max Gust Speed 15 mph    
Visibility 10 miles    
Events      
T = Trace of Precipitation, MM = Missing Value Source: NWS Daily Summary

Daily Weather History Graph

Daily Weather History Graph

Search for Another Location

Airport or City:

Trip Planner

Search our weather history database for the weather conditions in past years. The results will help you decide how hot, cold, wet, or windy it might be!

Date:

Astronomy

Oct. 05, 2013 Rise Set
Actual Time 6:35 AM EDT 6:03 PM EDT
Civil Twilight 6:05 AM EDT 6:32 PM EDT
Nautical Twilight 5:30 AM EDT 7:07 PM EDT
Astronomical Twilight 4:55 AM EDT 7:42 PM EDT
Moon 7:14 AM EDT 6:14 PM EDT
Length of Visible Light 12h 27m
Length of Day
11h 28m
New Moon, 0% of the Moon is Illuminated
Oct 5
New Moon
Oct 11
First Quarter
Oct 18
Full
Oct 26
Last Quarter
Nov 3
New

Hourly Weather History & Observations

Time (EDT) Temp. Windchill Dew Point Humidity Pressure Visibility Wind Dir Wind Speed Gust Speed Precip Events Conditions
12:53 AM 34.0 °F - 32.0 °F 92% 30.10 in 10.0 mi Calm Calm - N/A   Clear
1:53 AM 34.0 °F - 32.0 °F 92% 30.11 in 10.0 mi Calm Calm - N/A   Clear
2:53 AM 33.1 °F - 32.0 °F 96% 30.11 in 10.0 mi Calm Calm - N/A   Clear
3:53 AM 30.0 °F - 28.9 °F 96% 30.11 in 10.0 mi Calm Calm - N/A   Clear
4:53 AM 33.1 °F - 30.9 °F 92% 30.12 in 10.0 mi Calm Calm - N/A   Clear
5:53 AM 34.0 °F - 33.1 °F 96% 30.14 in 10.0 mi Calm Calm - N/A   Mostly Cloudy
6:53 AM 35.1 °F - 34.0 °F 96% 30.15 in 10.0 mi Calm Calm - N/A   Overcast
7:53 AM 36.0 °F - 35.1 °F 97% 30.14 in 10.0 mi Calm Calm - N/A   Clear
8:53 AM 45.0 °F - 39.0 °F 80% 30.15 in 10.0 mi Calm Calm - N/A   Scattered Clouds
9:53 AM 51.1 °F - 39.0 °F 63% 30.14 in 10.0 mi NNE 4.6 mph - N/A   Scattered Clouds
10:53 AM 52.0 °F - 39.0 °F 61% 30.13 in 10.0 mi Calm Calm - N/A   Overcast
11:53 AM 55.9 °F - 37.9 °F 51% 30.11 in 10.0 mi Variable 4.6 mph - N/A   Overcast
12:53 PM 55.0 °F - 37.0 °F 51% 30.10 in 10.0 mi Variable 6.9 mph - N/A   Overcast
1:53 PM 59.0 °F - 37.0 °F 44% 30.08 in 10.0 mi NW 9.2 mph - N/A   Mostly Cloudy
2:53 PM 59.0 °F - 36.0 °F 42% 30.06 in 10.0 mi NW 8.1 mph - N/A   Clear
3:53 PM 59.0 °F - 35.1 °F 41% 30.06 in 10.0 mi Variable 5.8 mph - N/A   Clear
4:53 PM 57.9 °F - 33.1 °F 39% 30.06 in 10.0 mi WNW 8.1 mph - N/A   Clear
5:53 PM 53.1 °F - 36.0 °F 52% 30.07 in 10.0 mi WNW 3.5 mph - N/A   Clear
6:53 PM 44.1 °F - 37.9 °F 79% 30.10 in 10.0 mi Calm Calm - N/A   Clear
7:53 PM 44.1 °F 40.8 °F 35.1 °F 71% 30.12 in 10.0 mi North 5.8 mph - N/A   Clear
8:53 PM 43.0 °F 38.2 °F 34.0 °F 71% 30.14 in 10.0 mi NNE 8.1 mph - N/A   Clear
9:53 PM 41.0 °F - 32.0 °F 70% 30.16 in 10.0 mi Calm Calm - N/A   Clear
10:53 PM 35.1 °F - 32.0 °F 89% 30.17 in 10.0 mi Calm Calm - N/A   Clear
11:53 PM 34.0 °F - 30.9 °F 89% 30.19 in 10.0 mi Calm Calm - N/A   Clear